Flag for Netherlands Weather past 2 weeks in Enschede, Netherlands

Now
52 °F

Overcast.


Feels Like: 46 °F
Forecast: 42 / 49 °F
Wind: 18 mph from Southwest

Location: Deelen

Current Time: Dec 23, 2014 at 1:19:11 AM

Latest Report: Dec 23, 2014 at 12:55 AM


Visibility: N/A

Pressure: 29.98 "Hg

Humidity: 77%

Dew point: 45 °F

Location of EnschedeLocation

Historic Weather in Enschede — Graph

°F

Enschede temperature yesterday

Maximum temperature yesterday: 54 °F (at 2:25 PM)
Minimum temperature yesterday: 48 °F (at 12:25 AM)
Average temperature yesterday: 51 °F

Past Weeks' High & Low Weather Summary

 TemperatureHumidityPressure
High54 °F (Dec 18, 1:55 PM)100% (Dec 8, 12:25 AM)30.33 "Hg (Dec 8, 12:25 AM)
Low28 °F (Dec 9, 6:25 AM)66% (Dec 10, 2:25 PM)29.30 "Hg (Dec 12, 11:55 AM)
Average42 °F92%29.89 "Hg
* Reported Dec 7 11:25 PM — Dec 22 11:55 PM, Enschede, Weather by CustomWeather, © 2014

Note: Actual official high and low records may vary slightly from our data, if they occured in-between our weather recording intervals... More about our weather records

Advertising

Enschede weather history for previous 24 hours

 ConditionsComfort  
Time TempWeatherWind HumidityBarometerVisibility
11:55 PM
Dec 22
52 °FOvercast.18 mph82%29.98 "HgN/A
11:25 PM52 °FPartly cloudy.20 mph82%29.98 "HgN/A
10:55 PM52 °FMostly cloudy.20 mph82%29.98 "HgN/A
10:25 PM52 °FMostly cloudy.21 mph88%29.98 "HgN/A
9:55 PM52 °FLight rain. Mostly cloudy.18 mph88%29.98 "HgN/A
9:25 PM52 °FDrizzle. Overcast.21 mph88%29.98 "HgN/A
8:55 PM50 °FDrizzle. Overcast.18 mph94%29.98 "HgN/A
8:25 PM50 °FLight rain. Mostly cloudy.21 mph94%29.98 "Hg5 mi
7:55 PM52 °FSprinkles. Mostly cloudy.20 mph88%29.98 "Hg5 mi
7:25 PM52 °FDrizzle. Mostly cloudy.20 mph88%29.98 "HgN/A
6:55 PM52 °FDrizzle. Overcast.20 mph88%29.98 "HgN/A
6:25 PM54 °FMostly cloudy.18 mph82%29.98 "HgN/A
5:55 PM54 °FMostly cloudy.18 mph82%29.98 "HgN/A
5:25 PM54 °FMostly cloudy.18 mph82%29.98 "HgN/A
4:55 PM54 °FMostly cloudy.16 mph82%29.98 "HgN/A
4:25 PM54 °FMostly cloudy.18 mph82%29.98 "HgN/A
3:55 PM54 °FMostly cloudy.20 mph82%29.98 "HgN/A
3:25 PM54 °FMostly cloudy.21 mph82%29.95 "HgN/A
2:55 PM54 °FMostly cloudy.23 mph88%29.95 "HgN/A
2:25 PM54 °FMostly cloudy.21 mph88%29.95 "HgN/A
1:55 PM52 °FCloudy.18 mph94%29.95 "HgN/A
1:25 PM50 °FFog.23 mph94%29.98 "Hg5 mi
12:55 PM52 °FMostly cloudy.22 mph88%29.98 "HgN/A
12:25 PM52 °FLow clouds.21 mph88%29.98 "HgN/A
11:55 AM52 °FCloudy.23 mph88%29.98 "HgN/A
11:25 AM52 °FMostly cloudy.24 mph88%29.98 "HgN/A
10:55 AM50 °FMostly cloudy.24 mph100%29.98 "HgN/A
10:25 AM50 °FDrizzle. Cloudy.25 mph94%29.98 "Hg2 mi
9:55 AM50 °FLight rain. Cloudy.23 mph94%29.98 "Hg1 mi
9:25 AM50 °FLight rain. More clouds than sun.22 mph94%30.01 "Hg1 mi
8:55 AM50 °FDrizzle. Mostly cloudy.22 mph94%30.01 "Hg1 mi
8:25 AM50 °FDrizzle. Overcast.25 mph94%29.98 "Hg2 mi
7:55 AM50 °FDrizzle. Mostly cloudy.24 mph94%29.98 "Hg2 mi
7:25 AM50 °FDrizzle. Mostly cloudy.21 mph94%30.01 "Hg2 mi
6:55 AM48 °FLight rain. Mostly cloudy.22 mph100%30.01 "Hg1 mi
6:25 AM48 °FLight rain. Mostly cloudy.21 mph100%30.01 "Hg2 mi
5:55 AM48 °FLight rain. Mostly cloudy.21 mph94%30.01 "Hg2 mi
5:25 AM48 °FDrizzle. Mostly cloudy.23 mph94%30.01 "Hg2 mi
4:25 AM48 °FLow clouds.22 mph94%30.04 "HgN/A
3:55 AM48 °FLow clouds.23 mph94%30.04 "HgN/A
3:25 AM48 °FFog.23 mph94%30.04 "Hg5 mi
2:55 AM48 °FFog.21 mph94%30.07 "Hg4 mi
2:25 AM48 °FFog.23 mph94%30.07 "Hg3 mi
1:55 AM48 °FFog.22 mph94%30.07 "Hg5 mi
1:25 AM48 °FFog.21 mph94%30.07 "Hg5 mi
Weather by CustomWeather, © 2014

See weather overviewHow to use our weather pages